Location: Bergnershof
(48.9468°N, 10.9431°E)
Time: 04:59:48
(UTC+00:00)

Cosmos 1992 Rocket - Pass Details

Date: 03 March 2021
Orbit: 759 x 765 km, 74.0° (Epoch: 11 April)

Event Time Altitude Azimuth Distance (km) Brightness Sun altitude
Rises 17:47:51 0° 185° (S) 3,217 7.3 -8.2°
Reaches altitude 10° 17:50:16 10° 180° (S) 2,295 6.5 -8.6°
Maximum altitude 17:55:17 50° 106° (ESE) 974 4.2 -9.4°
Drops below altitude 10° 18:00:19 10° 32° (NNE) 2,309 6.2 -10.2°
Sets 18:02:45 0° 28° (NNE) 3,238 7.0 -10.6°
